"Pseudo-MPEC" for A10jo2S

Created 2020 Jan 21 6:07:03 UT using Find_Orb

Click here for an explanation of pseudo-MPECs

 
 Astrometry: 
     A10jo2S KC2020 01 03.56886112 23 58.343-37 04 18.78   ~1HGbx19.8 GVNEOCPT08
     A10jo2S  C2020 01 03.58646412 23 57.942-37 04 21.12   ~1HGbx19.8 GVNEOCPT08
     A10jo2S  C2020 01 07.59635012 21 53.60 -37 12 48.2    ~17Iqx18.92oVNEOCPT08
     A10jo2S  C2020 01 07.60327912 21 53.28 -37 12 47.6    ~17Iqx18.79oVNEOCPT08
     A10jo2S  C2020 01 07.60606312 21 53.32 -37 12 47.9    ~17Iqx18.84oVNEOCPT08
     A10jo2S  C2020 01 07.62642012 21 52.63 -37 12 50.8    ~17Iqx19.15oVNEOCPT08
     A10jo2S |C2020 01 13N3UQyuZ:[P]W#Bb1'#EMaWk1gBxRS'eb]@9\;NQPX4-[VJl8'l?h807
     A10jo2S |C2020 01 13IdTj,,C_3.pN;-CC^M!r5\(_)tfu9.D$bi0o2J\tL-#A:FexNfJc807
     A10jo2S |C2020 01 13#,H,'h[@vYD9H/.ZYDU_QXEXEC,fGoiTAstrometryqO590UjiT)807
     A10jo2S |C2020 01 138ckLv5[[Am;fadfMe\?-k.GUdkxrt6[e=1TRluFaLHZ8uENk?66M807
     A10jo2S  C2020 01 147E7(D/4DAQUu*!K*=A0e!;FQ`eAw9XB*:fnUl7,fj#7N@X^`3a!ZK93
     A10jo2S  C2020 01 14laEg88E5w_UkU0]lq_X;=Jj7\(wpCRP5nO,B!u?:Q0o;m;2-NNJxK93
     A10jo2S  C2020 01 14raZ9PDEZ390j,EuK`[/B(KT5y\9QTUeUnS9Pf-`0-FV\qcR%_5P9K93
     A10jo2S  C2020 01 14$)P4*s9AF4Fguaw(-S?%I(1OgFYZK=dCQIQ7Gc%nP!UM]b[g*^y3K93
     A10jo2S  C2020 01 17%ym:Jd$m;McmDTn-4b75qdL4y)U^g.qG.a2(?ZxGwEk,9R@Vi/M-K91
     A10jo2S  C2020 01 17[;-qk`redacted;%-35HqgZohW:3c.e]dTlkb(-IFXn,]d9Ky;KKK91
     A10jo2S  C2020 01 17]+tKi_Zw$=;30`u8Gx8%lEcV840T_[kD/p`x/tu48jGQv:Rt,X@QK91
     A10jo2S  C2020 01 17AvD/`RHuCl+9,)I'Y7?#^AT45-.A?(M`$KI?#q:FcE9I)*bSIekDK91
     A10jo2S KC2020 01 17t%3[g/o6:NacmdZ-dw-W6t+R'.qs-ERt@)Zist=Z7dxKLHYt#IH.J04
     A10jo2S KC2020 01 17UOL#rUxRu'3dUa\5yFhJr*M+$PT8cVT6XXb30nb7''Fic\hcJl\.J04
     A10jo2S KC2020 01 18?AgIvma_IpO\(kI8`2OgmP00click2Rs6E/DQ1h'%O@(EJdM;he!J04
     A10jo2S KC2020 01 18ToCGE-11`*G_nE#y1EjuL@JkHfY3A3\Z'El@)m%w9\v$(VH#Wtw[J04
     A10jo2S KC2020 01 18eE!D3C1o;EQAjCat7@q*#Hb_X0i*mKpmLnIO?KZ`p$joB;Sy=;^PJ04
     A10jo2S KC2020 01 18KT?UHD%;KNut.$93_T)=Vs2RihereeR,j\QEV`G@Kn7V;mi!s=WFI47
     A10jo2S KC2020 01 18)05HB(,X3+4t,5nH:_nrUa/=Z'u[0_p3!l;aKOG9#-NKVCgok_J-I47
     A10jo2S KC2020 01 18F4K[;F%_f8:Y.U^7w:0e@#,5nk:kNMLCMBH2/aLBo',^WH]?h`KWI47
     A10jo2S 2C2020 01 18/pK1aS^hv10Ews`I;/*uoBSojjh2+mD:=o%$#clyNWx%P^(FG2uUF65
     A10jo2S 2C2020 01 18NeysSfX0L=YQB\nh6Byh!P')PN;KkJTV$'0j_d1(3$p0F`,FN-PUF65
     A10jo2S  C2020 01 196*++uV_+Z@;J%Z$jb7for,fa2!2*/b9EBCQNragXA.sEg-#Xon5VW85
     A10jo2S  C2020 01 195174;GQexplanationUFsRw!%^i]YQ0X5P3*I#:^%KumgBxBCrN@W85
     A10jo2S  C2020 01 19.53179612 14 08.47 -37 30 00.0    ~1JGb 18.87oVNEOCPT08
     A10jo2S  C2020 01 19.53718012 14 08.20 -37 30 00.5    ~1JGb 19.05oVNEOCPT08
     A10jo2S  C2020 01 19.54050812 14 07.98 -37 29 59.9    ~1JGb 19.11oVNEOCPT08
     A10jo2S  C2020 01 19.55436112 14 07.45 -37 30 02.3    ~1JGb 19.08oVNEOCPT08

Station data:
(807) Cerro Tololo Observatory, La Serena  (S30.169136 W70.805900)  Chile.
(F65) Haleakala-Faulkes Telescope North  (N20.707094 W156.257600)  US/Hawaii.
   2.0-m Faulkes Telescope North.
(I47) Pierre Auger Observatory, Malargüe  (S35.495442 W69.449700)  Argentina.
(J04) ESA Optical Ground Station, Tenerife  (N28.300924 W16.511830)  Canary
   Islands (Spain).  Observer D. Abreu. Measurers M. Micheli, D. Koschny, E.
   Schwab, M. Busch, A. Knöfel. 1.0-m f/4.4 reflector + CCD.
(K91) Sutherland-LCO A  (S32.380542 E20.810190)  South Africa.  Observers T.
   Lister, S. Greenstreet, E. Gomez. Measurer T. Lister. 1.0-m f/8
   Ritchey-Chrétien + CCD.
(K93) Sutherland-LCOGT C  (S32.380670 E20.810110)  South Africa.  Observer R.
   Miles. 1.0-m f/8.0 Ritchey-Chrétien + CCD.
(T08) ATLAS-MLO, Mauna Loa  (N19.536152 W155.576050)  US/Hawaii.  Observers
   L. Denneau, A. Heinze, H. Weiland, J. Tonry, H. Flewelling, A.
   Fitzsimmons, D. Young, B. Stalder. Measurers L. Denneau, A. Heinze, J.
   Tonry. 0.5-m f/2.0 Schmidt + CCD.
(W85) Cerro Tololo-LCO A  (S30.167407 W70.804810)  Chile.  Observers T.
   Lister, S. Greenstreet, E. Gomez. Measurer T. Lister. 1.0-m f/8
   Ritchey-Chrétien + CCD.

Orbital elements:  A10jo2S
   Perihelion 2020 Jan 16.245077 TT =  5:52:54 (JD 2458864.745077)
Epoch 2020 Jan 19.0 TT = JDT 2458867.5                        AutoNEOCP
M   0.03213394                      (J2000 ecliptic)
n   0.01166418     Peri.  293.44178
a  19.2560138      Node   126.31955
e   0.7091561      Incl.  145.47260
P  84.50           H   11.5     G   0.15   q 5.60049300  Q 32.9115346
28 of 34 observations 2020 Jan. 13-19; mean residual 1".41
Residuals in arcseconds: 
200103 T08(76.9+ 18.1-)   200114 K93  .33-  .18+    200118 I47  .78-  .15-    
200103 T08(78.1+ 17.9-)   200114 K93  .26-  .49+    200118 I47  .49-  .01+    
200107 T08(36.8+ 11.4-)   200117 K91  2.9-  1.0+    200118 F65  .40-  .19+    
200107 T08(35.7+ 10.0-)   200117 K91  2.6-  1.1+    200118 F65  .32-  .43+    
200107 T08(37.2+  9.9-)   200117 K91  2.7-  1.1+    200119 W85  1.9+  .56-    
200107 T08(37.0+ 10.4-)   200117 K91  2.5-  .74+    200119 W85  1.8+  .13+    
200113 807  1.9+  1.2-    200117 J04  2.4-  .90+    200119 T08  2.9+  .92-    
200113 807  1.7+  1.1-    200117 J04  2.3-  .49+    200119 T08  2.6+  1.1-    
200113 807  2.2+  .75-    200118 J04  1.0-  .32+    200119 T08  1.9+  .35-    
200113 807  1.9+  .75-    200118 J04  .97-  .50+    200119 T08  3.1+  2.0-    
200114 K93  .10-  .26+    200118 J04  .84-  .33+    
200114 K93  .16-  .67+    200118 I47  .84-  .02-    

Ephemerides (geocentric):
Date (UTC) HH   RA              Dec         delta   r     elong  mag
---- -- -- --  -------------   -----------  ------ ------ -----  ---
2020 01 21 06  12 12 48.694   -37 31 14.12  5.3618 5.6006  99.0 19.5
2020 01 21 07  12 12 46.727   -37 31 15.71  5.3611 5.6006  99.0 19.5
2020 01 21 08  12 12 44.757   -37 31 17.28  5.3605 5.6006  99.1 19.5
2020 01 21 09  12 12 42.786   -37 31 18.83  5.3598 5.6006  99.1 19.5
2020 01 21 10  12 12 40.812   -37 31 20.38  5.3591 5.6006  99.2 19.5
2020 01 21 11  12 12 38.837   -37 31 21.91  5.3585 5.6006  99.2 19.5
2020 01 21 12  12 12 36.859   -37 31 23.43  5.3578 5.6006  99.2 19.5
2020 01 21 13  12 12 34.880   -37 31 24.93  5.3571 5.6006  99.3 19.5
2020 01 21 14  12 12 32.899   -37 31 26.42  5.3564 5.6006  99.3 19.5
2020 01 21 15  12 12 30.916   -37 31 27.90  5.3558 5.6006  99.4 19.5
2020 01 21 16  12 12 28.931   -37 31 29.37  5.3551 5.6006  99.4 19.5
2020 01 21 17  12 12 26.944   -37 31 30.82  5.3544 5.6006  99.4 19.5
2020 01 21 18  12 12 24.956   -37 31 32.26  5.3538 5.6006  99.5 19.5
2020 01 21 19  12 12 22.965   -37 31 33.69  5.3531 5.6006  99.5 19.5
2020 01 21 20  12 12 20.972   -37 31 35.10  5.3524 5.6006  99.6 19.5
2020 01 21 21  12 12 18.978   -37 31 36.50  5.3518 5.6006  99.6 19.5
2020 01 21 22  12 12 16.981   -37 31 37.89  5.3511 5.6006  99.6 19.5
2020 01 21 23  12 12 14.983   -37 31 39.27  5.3504 5.6006  99.7 19.5
2020 01 22 00  12 12 12.983   -37 31 40.63  5.3498 5.6006  99.7 19.5
2020 01 22 01  12 12 10.980   -37 31 41.98  5.3491 5.6006  99.8 19.5
2020 01 22 02  12 12 08.976   -37 31 43.31  5.3484 5.6006  99.8 19.5
2020 01 22 03  12 12 06.970   -37 31 44.63  5.3478 5.6006  99.8 19.5
2020 01 22 04  12 12 04.962   -37 31 45.94  5.3471 5.6006  99.9 19.5
2020 01 22 05  12 12 02.952   -37 31 47.24  5.3464 5.6006  99.9 19.5
2020 01 22 06  12 12 00.941   -37 31 48.52  5.3458 5.6006 100.0 19.5
2020 01 22 07  12 11 58.927   -37 31 49.79  5.3451 5.6006 100.0 19.5
2020 01 22 08  12 11 56.911   -37 31 51.04  5.3444 5.6006 100.0 19.5
2020 01 22 09  12 11 54.894   -37 31 52.29  5.3438 5.6006 100.1 19.5
2020 01 22 10  12 11 52.874   -37 31 53.52  5.3431 5.6006 100.1 19.5
2020 01 22 11  12 11 50.853   -37 31 54.73  5.3424 5.6006 100.2 19.5
2020 01 22 12  12 11 48.830   -37 31 55.93  5.3418 5.6006 100.2 19.5
2020 01 22 13  12 11 46.805   -37 31 57.12  5.3411 5.6006 100.3 19.5
2020 01 22 14  12 11 44.778   -37 31 58.30  5.3404 5.6006 100.3 19.5
2020 01 22 15  12 11 42.749   -37 31 59.46  5.3398 5.6006 100.3 19.5
2020 01 22 16  12 11 40.718   -37 32 00.61  5.3391 5.6006 100.4 19.5
2020 01 22 17  12 11 38.685   -37 32 01.74  5.3384 5.6006 100.4 19.5
2020 01 22 18  12 11 36.650   -37 32 02.87  5.3378 5.6006 100.5 19.5
2020 01 22 19  12 11 34.613   -37 32 03.97  5.3371 5.6006 100.5 19.5
2020 01 22 20  12 11 32.575   -37 32 05.07  5.3365 5.6006 100.5 19.5
2020 01 22 21  12 11 30.534   -37 32 06.15  5.3358 5.6006 100.6 19.5
2020 01 22 22  12 11 28.492   -37 32 07.22  5.3351 5.6006 100.6 19.5
2020 01 22 23  12 11 26.448   -37 32 08.27  5.3345 5.6006 100.7 19.5
2020 01 23 00  12 11 24.402   -37 32 09.31  5.3338 5.6006 100.7 19.5
2020 01 23 01  12 11 22.353   -37 32 10.34  5.3331 5.6006 100.7 19.5
2020 01 23 02  12 11 20.303   -37 32 11.35  5.3325 5.6006 100.8 19.5
2020 01 23 03  12 11 18.252   -37 32 12.35  5.3318 5.6006 100.8 19.5
2020 01 23 04  12 11 16.198   -37 32 13.34  5.3311 5.6007 100.9 19.5
2020 01 23 05  12 11 14.142   -37 32 14.31  5.3305 5.6007 100.9 19.5